Overview Statistics Trail Chart Weather Telemetry Raw packets
 

This is the latest recevied weather packets stored in our database for station/object K7FLA. If no packets are shown the sender has not sent any weather packets the latest 10 day(s).

<< 95 96 97 98 99 100 101 >>
Time Temp. Humidity Pressure Rain* Wind** Luminosity Snow
1787955129 40° C 24% 1094 hPa 0 mm - 551 W/m² -
1787954826 40° C 23% 1094 hPa 0 mm - 553 W/m² -
1787954516 40° C 23% 1094.2 hPa 0 mm - 571 W/m² -
1787954215 40° C 21% 1094 hPa 0 mm - 593 W/m² -
1787953910 40° C 23% 1094 hPa 0 mm - 606 W/m² -
1787953609 40° C 23% 1094.3 hPa 0 mm - 633 W/m² -
1787953304 40° C 22% 1094.5 hPa 0 mm - 620 W/m² -
1787953002 40° C 22% 1094.6 hPa 0 mm - 629 W/m² -
1787952701 40° C 21% 1094.5 hPa 0 mm - 645 W/m² -
1787952396 40° C 21% 1094.5 hPa 0 mm - 657 W/m² -
1787952093 40° C 22% 1094.6 hPa 0 mm - 668 W/m² -
1787951791 40° C 21% 1094.6 hPa 0 mm - 675 W/m² -
1787951487 40.56° C 21% 1095 hPa 0 mm - 692 W/m² -
1787951184 40.56° C 22% 1094.8 hPa 0 mm - 697 W/m² -
1787950880 40.56° C 22% 1094.8 hPa 0 mm - 703 W/m² -
1787950574 40.56° C 23% 1095.1 hPa 0 mm - 715 W/m² -
1787950270 40° C 23% 1094.9 hPa 0 mm - 725 W/m² -
1787949967 40° C 20% 1094.9 hPa 0 mm - 729 W/m² -
1787949666 40.56° C 22% 1095.1 hPa 0 mm - 742 W/m² -
1787949360 40° C 22% 1095 hPa 0 mm - 744 W/m² -
1787949056 40° C 22% 1095 hPa 0 mm - 739 W/m² -
1787948752 40.56° C 22% 1095.2 hPa 0 mm - 755 W/m² -
1787948452 40.56° C 22% 1095.1 hPa 0 mm - 767 W/m² -
1787948147 40.56° C 23% 1095.3 hPa 0 mm - 759 W/m² -
1787947846 40.56° C 23% 1095.3 hPa 0 mm - 756 W/m² -

* Rain latest hour (hover to see other rain measurements)
** Current wind speed in m/s (hover to see current wind gust speed)